Location: Moy Burn
(57.3833°N, 4.0667°W)
Time: 08:26:33
(UTC+00:00)

Meteor 1-19 Rocket - Pass Details

Date: 08 August 2020
Orbit: 811 x 924 km, 81.2° (Epoch: 18 September)

Event Time Altitude Azimuth Distance (km) Brightness Sun altitude
Rises 22:12:03 0° 343° (NNW) 3,357 9.0 -12.0°
Reaches altitude 10° 22:14:28 10° 341° (NNW) 2,416 8.0 -12.2°
Maximum altitude 22:19:51 65° 260° (W) 893 4.4 -12.6°
Enters shadow 22:24:33 14° 181° (S) 2,159 5.8 -12.9°
